Location: Cheyres
(46.8153°N, 6.7877°E)
Time: 02:40:38
(UTC+00:00)

CUBEBUG 2 - Pass Details

Date: 03 July 2022
Orbit: 584 x 692 km, 97.7° (Epoch: 11 August)

Event Time Altitude Azimuth Distance (km) Brightness Sun altitude
Rises 03:00:00 0° 8° (N) 2,836 ? -6.6°
Reaches altitude 10° 03:02:10 10° 5° (N) 1,939 ? -6.3°
Maximum altitude 03:06:16 55° 288° (WNW) 732 ? -5.8°
Drops below altitude 10° 03:10:27 10° 210° (SSW) 1,974 ? -5.3°
Enters shadow 03:11:36 - 208° (SSW) 2,444 ? -5.1°
